[[{"header":{"parameterUnit":"m.s-1","parameterCategory":2,"la1":30.2992,"la2":30.254,"lo1":-89.0895,"lo2":-89.0443,"dy":0.0025,"dx":0.0025,"nx":19,"ny":19,"refTime":"2026-05-07T21:00:00:Z","depth":"0","parameterNumber":2,"parameterNumberName":"U-component_of_CURRENTS"},"data":[0,0,0,0.1535,0.1537,0.159,0.159,0.163,0.163,0,0,0,0,0,0,0,0,0,0,0,0.1509,0.1509,0.1535,0.1537,0.159,0.159,0.163,0.163,0,0,0,0,0,0,0,0,0,0,0,0.1509,0.1509,0.151,0.1537,0.159,0.159,0.163,0.1595,0,0,0,0,0,0,0,0,0,0,0.1546,0.1525,0.1509,0.151,0.1537,0.159,0.159,0.1594,0.1597,0.1599,0,0.1609,0,0.1627,0.1633,0.1633,0,0,0,0.153,0.1522,0.1542,0.151,0.1538,0.159,0.1564,0.1596,0.16,0.1604,0.1609,0.1611,0.1627,0.1633,0.1633,0.1697,0.1697,0,0,0.1527,0.1513,0.154,0.1545,0.1553,0.1563,0.1566,0.1598,0.1599,0.161,0.1613,0.1628,0.1633,0.1634,0.1696,0.1697,0,0,0,0.1523,0.1511,0.1531,0.1543,0.1559,0.1564,0.1568,0.1597,0.1606,0.1613,0.1628,0.1634,0.1634,0.1696,0.1696,0.1689,0,0,0,0.1521,0.1509,0.1529,0.152,0.1558,0.1582,0.1566,0.1603,0.1608,0.1628,0.1634,0.1634,0.1695,0.1696,0.1688,0.1687,0,0,0,0.1506,0.1507,0.1515,0.1519,0.1547,0.1582,0.1592,0.1604,0.1617,0.1633,0.1635,0.1695,0.1696,0.1687,0.1686,0.1744,0,0,0,0.1487,0.1493,0.1515,0.1527,0.1547,0.1584,0.1592,0.1615,0.1628,0.1634,0.1695,0.1696,0.1687,0.1685,0.1743,0.1792,0.1802,0,0,0.1482,0.1491,0.15,0.1521,0.155,0.1576,0.1611,0.1629,0.1646,0.168,0.1682,0.1688,0.1686,0.1744,0.1847,0.1856,0,0,0,0.1491,0.1494,0.1507,0.153,0.1565,0.1598,0.1629,0.1648,0.1683,0.1661,0.171,0.1709,0.1746,0.1773,0.1781,0.1858,0.1701,0.1701,0.1701,0.1451,0.1479,0.1492,0.1532,0.1558,0.1615,0.1645,0.1681,0.1693,0.1714,0.1719,0.1779,0.1807,0.1813,0.1892,0.1737,0.1737,0.1737,0.1737,0.1435,0.1437,0.1478,0.1499,0.1547,0.1581,0.1658,0.1683,0.1755,0.174,0.1777,0.1783,0.1821,0.1903,0.1737,0.1737,0.1737,0.1737,0.1737,0.1395,0.14,0.1421,0.1457,0.1495,0.1563,0.1634,0.1693,0.1752,0.1783,0.1858,0.1859,0.192,0.1819,0.1819,0.1819,0.1819,0.182,0.182,0.134,0.1364,0.1375,0.1416,0.1438,0.1504,0.1628,0.1707,0.1828,0.1868,0.1869,0.1961,0.1805,0.1789,0.1824,0.1823,0.1822,0.1822,0.1822,0.1287,0.1303,0.1318,0.1337,0.1396,0.1432,0.1579,0.1765,0.187,0.1937,0.2074,0.193,0.1947,0.1942,0.1931,0.2001,0.2001,0.2001,0.2001,0.1245,0.1258,0.127,0.1288,0.1328,0.1395,0.151,0.1718,0.2002,0.2145,0.2191,0.218,0.2169,0.2199,0.2188,0.2182,0.2313,0.2314,0.2314,0.1216,0.123,0.1221,0.1246,0.1283,0.1344,0.1423,0.1638,0.2101,0.2333,0.2293,0.228,0.2265,0.2242,0.2286,0.2264,0.2252,0,0]},{"header":{"parameterUnit":"m.s-1","parameterCategory":2,"la1":30.2992,"la2":30.254,"lo1":-89.0895,"lo2":-89.0443,"dy":0.0025,"dx":0.0025,"nx":19,"ny":19,"refTime":"2026-05-07T21:00:00:Z","depth":"0","parameterNumber":3,"parameterNumberName":"V-component_of_CURRENTS"},"data":[0,0,0,0.0025,0.0024,-0.0014,-0.0014,-0.007,-0.007,0,0,0,0,0,0,0,0,0,0,0,0.0039,0.0039,0.0025,0.0024,-0.0014,-0.0014,-0.007,-0.007,0,0,0,0,0,0,0,0,0,0,0,0.0039,0.0039,0.0039,0.0024,-0.0014,-0.0014,-0.0069,-0.0041,0,0,0,0,0,0,0,0,0,0,-0.0004,0.0017,0.0039,0.0039,0.0024,-0.0013,-0.0014,-0.004,-0.0043,-0.0052,0,-0.0052,0,-0.006,-0.0073,-0.0073,0,0,0,0.0017,0.002,0.0007,0.0039,0.0024,-0.0013,0.0001,-0.0041,-0.0045,-0.0057,-0.0053,-0.0055,-0.0061,-0.0074,-0.0074,-0.0043,-0.0042,0,0,0.0019,0.0033,0.001,0.0005,0.0021,0.0003,0.0,-0.0043,-0.0042,-0.0053,-0.0057,-0.0062,-0.0074,-0.0074,-0.0043,-0.0043,0,0,0,0.003,0.0034,0.0022,0.0007,0.0002,0.0002,-0.0001,-0.0041,-0.0045,-0.0057,-0.0063,-0.0074,-0.0075,-0.0044,-0.0043,-0.0006,0,0,0,0.0031,0.0041,0.0023,0.0031,0.0003,-0.0017,0.0003,-0.0042,-0.0047,-0.0062,-0.0074,-0.0075,-0.0045,-0.0044,-0.0008,0.0005,0,0,0,0.004,0.0042,0.0039,0.0032,0.0018,-0.0017,-0.0024,-0.0043,-0.005,-0.0074,-0.0075,-0.0046,-0.0044,-0.0011,0.0001,0.0037,0,0,0,0.0052,0.0075,0.004,0.0067,0.0019,0.0036,-0.0024,-0.0023,-0.0036,-0.0074,-0.0045,-0.0043,-0.0011,-0.0001,0.0034,0.0173,0.0195,0,0,0.0093,0.0081,0.0098,0.0066,0.0096,0.004,0.0066,0.0015,-0.0014,-0.0035,-0.0034,-0.0007,0.0001,0.0036,0.0269,0.0288,0,0,0,0.012,0.013,0.0136,0.0139,0.0133,0.0113,0.0075,0.0054,0.003,-0.0013,0.0016,0.0021,0.0041,0.0121,0.0137,0.0048,-0.0036,-0.0036,-0.0036,0.0191,0.0182,0.0207,0.0194,0.0198,0.0167,0.0148,0.0112,0.0084,0.0087,0.0069,0.0145,0.0233,0.0246,0.0152,0.0091,0.0091,0.0091,0.0092,0.0246,0.0251,0.0239,0.0256,0.0232,0.0239,0.02,0.0172,0.0163,0.013,0.0148,0.0179,0.0265,0.0159,0.0094,0.0094,0.0094,0.0093,0.0093,0.0277,0.0273,0.0277,0.0283,0.0286,0.0266,0.0308,0.0251,0.0203,0.021,0.0309,0.031,0.02,0.0232,0.0233,0.0233,0.0233,0.0233,0.0233,0.0292,0.0295,0.0307,0.031,0.0324,0.0359,0.0365,0.0391,0.0395,0.0369,0.0371,0.0238,0.0188,0.0163,0.0237,0.0236,0.0236,0.0236,0.0235,0.0308,0.0307,0.0335,0.0353,0.0417,0.0547,0.0543,0.0654,0.0636,0.0665,0.0449,0.0455,0.0455,0.0444,0.0426,0.0563,0.0563,0.0563,0.0563,0.0315,0.0316,0.0373,0.0433,0.0539,0.064,0.0867,0.0912,0.0761,0.0661,0.0528,0.0512,0.0503,0.0501,0.0489,0.047,0.0614,0.0614,0.0614,0.0318,0.034,0.0397,0.0471,0.0603,0.0801,0.1033,0.1115,0.0859,0.0597,0.0372,0.037,0.032,0.0313,0.0287,0.0277,0.0238,0,0]}],[{"header":{"parameterUnit":"m.s-1","parameterCategory":2,"la1":30.2992,"la2":30.254,"lo1":-89.0895,"lo2":-89.0443,"dy":0.0025,"dx":0.0025,"nx":19,"ny":19,"refTime":"2026-05-07T21:00:00:Z","depth":"2","parameterNumber":2,"parameterNumberName":"U-component_of_CURRENTS"},"data":[0,0,0,0.1581,0.1583,0.1638,0.1638,0.1682,0.1683,0,0,0,0,0,0,0,0,0,0,0,0.1555,0.1555,0.1581,0.1583,0.1638,0.1638,0.1682,0.1683,0,0,0,0,0,0,0,0,0,0,0,0.1555,0.1555,0.1555,0.1583,0.1638,0.1638,0.1682,0.1646,0,0,0,0,0,0,0,0,0,0,0.1595,0.1573,0.1555,0.1555,0.1583,0.1637,0.1638,0.1644,0.1648,0.1652,0,0.1661,0,0.1679,0.1686,0.1686,0,0,0,0.1577,0.157,0.1591,0.1556,0.1584,0.1637,0.1611,0.1647,0.1651,0.1657,0.1662,0.1664,0.168,0.1686,0.1686,0.1751,0.1752,0,0,0.1574,0.1559,0.1588,0.1593,0.1599,0.1609,0.1613,0.1649,0.165,0.1662,0.1666,0.168,0.1686,0.1687,0.1751,0.1751,0,0,0,0.1569,0.1557,0.1577,0.1591,0.1607,0.1611,0.1615,0.1648,0.1657,0.1666,0.1681,0.1687,0.1687,0.175,0.1751,0.1743,0,0,0,0.1567,0.1555,0.1576,0.1566,0.1606,0.1631,0.1613,0.1654,0.1659,0.1681,0.1687,0.1688,0.175,0.1751,0.1743,0.1738,0,0,0,0.1552,0.1553,0.1561,0.1566,0.1594,0.1631,0.1642,0.1655,0.1668,0.1686,0.1688,0.175,0.1751,0.1742,0.1738,0.1799,0,0,0,0.1533,0.154,0.156,0.1574,0.1593,0.1632,0.1642,0.1666,0.1681,0.1687,0.175,0.1751,0.1742,0.1737,0.1798,0.1845,0.1856,0,0,0.1531,0.1539,0.1548,0.1568,0.1598,0.1624,0.166,0.168,0.1698,0.1734,0.1736,0.1743,0.1738,0.1799,0.1898,0.1906,0,0,0,0.154,0.1543,0.1557,0.158,0.1615,0.1647,0.168,0.1699,0.1735,0.1714,0.1764,0.1761,0.18,0.1826,0.1833,0.1755,0.1755,0.1755,0.1755,0.1503,0.1531,0.1545,0.1584,0.161,0.1666,0.1695,0.1732,0.1745,0.1766,0.177,0.1831,0.1858,0.1864,0.1789,0.1788,0.1788,0.1788,0.1788,0.149,0.1491,0.1531,0.1552,0.1598,0.1631,0.1708,0.1733,0.1805,0.179,0.1829,0.1835,0.1872,0.1788,0.1788,0.1788,0.1788,0.1788,0.1788,0.145,0.1454,0.1476,0.1509,0.1545,0.161,0.1682,0.174,0.18,0.1831,0.1909,0.1909,0.1835,0.187,0.1871,0.1871,0.1871,0.1871,0.1871,0.1393,0.1418,0.1427,0.1466,0.1487,0.1551,0.1675,0.1759,0.1879,0.1916,0.1917,0.1859,0.1857,0.1842,0.1875,0.1875,0.1874,0.1874,0.1874,0.1338,0.1354,0.1367,0.1385,0.1446,0.1496,0.1634,0.1831,0.1939,0.2009,0.1984,0.198,0.1997,0.1992,0.1982,0.205,0.205,0.205,0.205,0.1293,0.1306,0.1318,0.1339,0.1387,0.1468,0.1586,0.1706,0.1872,0.1883,0.1889,0.1845,0.1844,0.1849,0.1847,0.1832,0.186,0.1859,0.1858,0.1261,0.1276,0.1268,0.13,0.1349,0.1436,0.1501,0.1517,0.1629,0.1838,0.1722,0.2063,0.2015,0.2007,0.2028,0.2019,0.2001,0,0]},{"header":{"parameterUnit":"m.s-1","parameterCategory":2,"la1":30.2992,"la2":30.254,"lo1":-89.0895,"lo2":-89.0443,"dy":0.0025,"dx":0.0025,"nx":19,"ny":19,"refTime":"2026-05-07T21:00:00:Z","depth":"2","parameterNumber":3,"parameterNumberName":"V-component_of_CURRENTS"},"data":[0,0,0,-0.0079,-0.008,-0.0116,-0.0116,-0.0178,-0.0178,0,0,0,0,0,0,0,0,0,0,0,-0.0065,-0.0065,-0.0079,-0.008,-0.0116,-0.0116,-0.0178,-0.0178,0,0,0,0,0,0,0,0,0,0,0,-0.0065,-0.0065,-0.0065,-0.008,-0.0116,-0.0116,-0.0177,-0.0148,0,0,0,0,0,0,0,0,0,0,-0.0112,-0.009,-0.0065,-0.0065,-0.008,-0.0116,-0.0116,-0.0147,-0.015,-0.0164,0,-0.0162,0,-0.017,-0.0182,-0.0182,0,0,0,-0.0088,-0.0087,-0.01,-0.0065,-0.008,-0.0115,-0.0102,-0.0149,-0.0152,-0.0168,-0.0163,-0.0166,-0.0171,-0.0182,-0.0183,-0.0167,-0.0167,0,0,-0.0086,-0.0071,-0.0097,-0.0102,-0.0081,-0.01,-0.0103,-0.0151,-0.0149,-0.0164,-0.0167,-0.0172,-0.0183,-0.0183,-0.0168,-0.0167,0,0,0,-0.0075,-0.007,-0.0082,-0.0099,-0.0103,-0.0101,-0.0104,-0.0147,-0.0152,-0.0168,-0.0172,-0.0183,-0.0184,-0.0169,-0.0168,-0.0118,0,0,0,-0.0074,-0.0063,-0.008,-0.0073,-0.0102,-0.0122,-0.0099,-0.0149,-0.0154,-0.0172,-0.0183,-0.0184,-0.0169,-0.0168,-0.0121,-0.0102,0,0,0,-0.0065,-0.0062,-0.0065,-0.0072,-0.0084,-0.0122,-0.0129,-0.015,-0.0157,-0.0182,-0.0184,-0.017,-0.0168,-0.0123,-0.0106,-0.0072,0,0,0,-0.0053,-0.0034,-0.0064,-0.0043,-0.0084,-0.0075,-0.0129,-0.0131,-0.0146,-0.0183,-0.0169,-0.0168,-0.0124,-0.0108,-0.0075,-0.0041,-0.0027,0,0,-0.0019,-0.003,-0.0017,-0.0044,-0.002,-0.0071,-0.005,-0.0098,-0.013,-0.0158,-0.0158,-0.012,-0.0106,-0.0073,0.004,0.0052,0,0,0,0.0001,0.0011,0.0014,0.0017,0.0008,-0.0005,-0.0044,-0.0064,-0.0087,-0.0132,-0.0105,-0.0098,-0.0079,-0.0063,-0.0053,-0.0161,-0.0161,-0.0162,-0.0162,0.0065,0.0056,0.008,0.0069,0.007,0.0043,0.0028,-0.0006,-0.0039,-0.0034,-0.0046,0.0028,0.0046,0.0054,-0.0033,-0.0032,-0.0032,-0.0032,-0.0032,0.0116,0.0125,0.0117,0.0134,0.0117,0.0123,0.0087,0.0061,0.0052,0.0015,0.0032,0.0002,0.0067,-0.0028,-0.0029,-0.0029,-0.003,-0.003,-0.003,0.0149,0.015,0.0156,0.0171,0.0181,0.0162,0.0203,0.015,0.0101,0.0111,0.013,0.0129,0.0048,0.0128,0.0129,0.0129,0.0129,0.0129,0.013,0.0171,0.0178,0.0198,0.0208,0.0226,0.0261,0.0266,0.0285,0.0247,0.0191,0.0191,0.0082,0.0077,0.0058,0.0133,0.0133,0.0132,0.0132,0.0132,0.0197,0.0199,0.0235,0.0258,0.0324,0.0416,0.0416,0.047,0.0452,0.0447,0.0231,0.0228,0.0213,0.0205,0.0189,0.0295,0.0295,0.0295,0.0295,0.0213,0.0216,0.028,0.0342,0.0434,0.0497,0.0616,0.0543,0.043,0.0262,0.0263,0.0227,0.0223,0.0205,0.0196,0.0179,0.0281,0.0281,0.0281,0.0228,0.0248,0.0309,0.0379,0.0491,0.0616,0.0665,0.0546,0.0323,0.0274,0.0198,0.0306,0.0255,0.0247,0.0218,0.0205,0.0176,0,0]}],[{"header":{"parameterUnit":"m.s-1","parameterCategory":2,"la1":30.2992,"la2":30.254,"lo1":-89.0895,"lo2":-89.0443,"dy":0.0025,"dx":0.0025,"nx":19,"ny":19,"refTime":"2026-05-07T21:00:00:Z","depth":"4","parameterNumber":2,"parameterNumberName":"U-component_of_CURRENTS"},"data":[0,0,0,0.1024,0.1026,0.1122,0.1122,0.1182,0.1182,0,0,0,0,0,0,0,0,0,0,0,0.0999,0.1,0.1024,0.1026,0.1122,0.1122,0.1182,0.1182,0,0,0,0,0,0,0,0,0,0,0,0.0998,0.0999,0.1,0.1027,0.1122,0.1122,0.1182,0.1126,0,0,0,0,0,0,0,0,0,0,0.1041,0.1031,0.0999,0.1,0.1027,0.1122,0.1122,0.1124,0.1129,0.112,0,0.1144,0,0.1159,0.1185,0.1185,0,0,0,0.1029,0.1027,0.1045,0.1001,0.1028,0.1121,0.108,0.1128,0.1134,0.1127,0.1145,0.1147,0.116,0.1185,0.1185,0.1237,0.1238,0,0,0.1024,0.102,0.1042,0.105,0.1063,0.1076,0.1082,0.1132,0.1145,0.1145,0.1149,0.1161,0.1185,0.1185,0.1237,0.1238,0,0,0,0.1007,0.1017,0.1036,0.1047,0.1066,0.1079,0.1086,0.1143,0.1148,0.115,0.1161,0.1185,0.1186,0.1237,0.1237,0.1274,0,0,0,0.1004,0.1006,0.1033,0.1033,0.1066,0.1116,0.1096,0.1145,0.1151,0.1161,0.1185,0.1186,0.1236,0.1237,0.1273,0.1283,0,0,0,0.0992,0.1005,0.1018,0.1032,0.1071,0.1115,0.1124,0.1147,0.1157,0.1185,0.1186,0.1236,0.1237,0.1271,0.1281,0.1327,0,0,0,0.0982,0.0999,0.1019,0.1045,0.107,0.1112,0.1124,0.1169,0.1196,0.1185,0.1237,0.1237,0.1271,0.1279,0.1325,0.1145,0,0,0,0.0989,0.1,0.1014,0.1033,0.1064,0.1098,0.1144,0.119,0.1201,0.1215,0.1217,0.1273,0.1281,0.1327,0.119,0,0,0,0,0.1006,0.1016,0.1029,0.1059,0.1092,0.1139,0.1181,0.1206,0.1257,0.122,0.1278,0.1281,0.131,0.1198,0.1241,0.1241,0.1241,0.1241,0.1241,0.0995,0.1015,0.1036,0.1068,0.1107,0.1173,0.1217,0.126,0.1267,0.1302,0.1316,0.138,0.1263,0.1323,0.1323,0.1323,0.1323,0.1323,0.1323,0.0984,0.0985,0.1037,0.1067,0.1124,0.1178,0.126,0.1295,0.1367,0.1352,0.1379,0.1249,0.1327,0.1326,0.1326,0.1325,0.1325,0.1325,0.1325,0.095,0.095,0.099,0.104,0.1115,0.1195,0.1264,0.1345,0.14,0.1435,0.1337,0.1413,0.1406,0.1465,0.1466,0.1466,0.1466,0.1466,0.1466,0.0886,0.0921,0.0942,0.1012,0.1064,0.116,0.1281,0.1326,0.1413,0.136,0.146,0.1428,0.1423,0.1415,0.1471,0.147,0.1469,0.1469,0.1469,0.082,0.0846,0.0865,0.0909,0.103,0.109,0.1219,0.1262,0.1306,0.1306,0.132,0.1326,0.1299,0.1298,0.1284,0.1303,0.1301,0.1299,0,0.0767,0.078,0.0808,0.0865,0.094,0.1053,0.1056,0.1125,0.1203,0.1172,0.1336,0.1351,0.1354,0.1323,0.1318,0.13,0,0,0,0.0721,0.0731,0.0742,0.0814,0.0903,0.098,0.1059,0.1033,0.1196,0.1155,0.1246,0.126,0.1359,0.1483,0.1457,0.1451,0.1437,0,0]},{"header":{"parameterUnit":"m.s-1","parameterCategory":2,"la1":30.2992,"la2":30.254,"lo1":-89.0895,"lo2":-89.0443,"dy":0.0025,"dx":0.0025,"nx":19,"ny":19,"refTime":"2026-05-07T21:00:00:Z","depth":"4","parameterNumber":3,"parameterNumberName":"V-component_of_CURRENTS"},"data":[0,0,0,-0.016,-0.0162,-0.0223,-0.0223,-0.0322,-0.0323,0,0,0,0,0,0,0,0,0,0,0,-0.0139,-0.014,-0.016,-0.0162,-0.0223,-0.0223,-0.0322,-0.0323,0,0,0,0,0,0,0,0,0,0,0,-0.0139,-0.014,-0.014,-0.0162,-0.0223,-0.0223,-0.0322,-0.0272,0,0,0,0,0,0,0,0,0,0,-0.0211,-0.0184,-0.014,-0.014,-0.0162,-0.0223,-0.0223,-0.027,-0.0275,-0.0298,0,-0.0303,0,-0.0313,-0.0329,-0.033,0,0,0,-0.0169,-0.0179,-0.0196,-0.014,-0.0163,-0.0222,-0.0197,-0.0273,-0.0279,-0.0305,-0.0304,-0.0308,-0.0314,-0.033,-0.033,-0.0401,-0.0401,0,0,-0.0166,-0.0153,-0.0192,-0.02,-0.0174,-0.0195,-0.0199,-0.0276,-0.0281,-0.0305,-0.031,-0.0316,-0.033,-0.0331,-0.0401,-0.0401,0,0,0,-0.0151,-0.015,-0.0166,-0.0196,-0.0204,-0.0197,-0.0201,-0.0278,-0.0283,-0.0311,-0.0317,-0.0331,-0.0332,-0.0401,-0.0401,-0.0315,0,0,0,-0.0149,-0.0141,-0.0164,-0.0157,-0.0202,-0.0238,-0.0201,-0.0277,-0.0286,-0.0317,-0.0331,-0.0333,-0.0401,-0.0401,-0.0317,-0.0257,0,0,0,-0.0137,-0.014,-0.0146,-0.0156,-0.0179,-0.0237,-0.0247,-0.028,-0.029,-0.033,-0.0333,-0.0401,-0.0401,-0.0319,-0.0262,-0.0248,0,0,0,-0.0125,-0.0135,-0.0145,-0.0158,-0.0178,-0.0212,-0.0247,-0.028,-0.0311,-0.0332,-0.0401,-0.0401,-0.032,-0.0265,-0.0251,-0.0262,0,0,0,-0.0132,-0.0136,-0.0143,-0.0153,-0.0166,-0.0204,-0.0215,-0.0269,-0.0322,-0.0378,-0.038,-0.0317,-0.0262,-0.0249,-0.0272,0,0,0,0,-0.0141,-0.014,-0.0149,-0.0156,-0.0184,-0.0177,-0.0239,-0.0262,-0.0306,-0.034,-0.0344,-0.0313,-0.0306,-0.0323,-0.0402,-0.0402,-0.0402,-0.0402,-0.0402,-0.0131,-0.0136,-0.013,-0.0134,-0.0143,-0.017,-0.017,-0.0214,-0.0283,-0.029,-0.0263,-0.0219,-0.0235,-0.0301,-0.0301,-0.0301,-0.03,-0.03,-0.03,-0.0114,-0.0097,-0.0088,-0.0083,-0.0074,-0.0079,-0.01,-0.0132,-0.0155,-0.0215,-0.0214,-0.0257,-0.0292,-0.0294,-0.0295,-0.0296,-0.0296,-0.0297,-0.0297,-0.0093,-0.0078,-0.0075,-0.0033,0.0004,-0.0002,0.0028,-0.0001,-0.0069,-0.0053,-0.012,-0.0167,-0.0151,-0.0078,-0.0077,-0.0077,-0.0077,-0.0077,-0.0076,-0.0062,-0.0053,-0.0014,0.0025,0.0063,0.0104,0.01,0.0074,0.0021,-0.0014,-0.0041,-0.0145,-0.0152,-0.014,-0.0071,-0.0072,-0.0073,-0.0073,-0.0074,-0.0019,-0.0014,0.0047,0.0084,0.0158,0.0177,0.0178,0.0113,0.009,0.005,-0.001,-0.0014,-0.0047,-0.0057,-0.0043,0.0057,0.0058,0.0058,0,0.0021,0.0024,0.0102,0.0158,0.0207,0.0218,0.0186,0.014,0.0079,0.0091,0.0069,0.0005,-0.0,-0.0038,-0.0047,-0.0031,0,0,0,0.0071,0.0085,0.0135,0.0169,0.0215,0.0197,0.0172,0.014,0.0122,0.0058,0.0061,0.006,-0.0055,-0.0056,-0.0118,-0.0127,-0.0112,0,0]}]]